RH
76 75 74 75 76 78 78 79 80 81 82 83 83 83 84 85 86 86 85 86 87 88 85 87 88 87 86 83 80 77 75 71 68 63 55 52 50 48 47 45 43 42 43 45 48 52 55 56 57 57 56 56 56 55 53 51 48 44 39 34 33 37 50 71 80 82 84 81 80 79 79 79 80 81 80 81 81 81 82 82 82 82 83 83 82 81 84 85 87 88 88 86 85 84 84 83 81 80 79 81 81 82 83
77 76 75 77 78 78 80 79 80 83 84 81 81 82 81 81 82 85 88 88 88 87 86 87 86 85 86 86 85 83 83 79 73 64 52 42 36 35 38 41 43 44 46 47 49 52 55 56 57 58 58 57 57 57 57 55 54 52 51 49 44 41 41 68 78 81 85 83 81 80 79 79 79 80 80 81 81 81 82 81 82 83 83 84 82 81 81 82 84 86 87 88 88 89 89 88 87 86 84 83 81 80 81
78 78 76 78 79 80 82 81 81 82 82 81 82 83 83 83 83 84 87 87 87 87 87 87 86 86 84 86 87 87 84 81 76 66 49 39 33 30 32 39 44 47 49 51 51 52 53 56 58 59 60 59 59 59 59 58 57 56 55 54 54 52 47 69 78 80 84 84 82 80 80 80 80 81 80 81 82 83 83 82 82 81 80 82 83 83 82 81 82 83 83 83 85 87 89 89 89 89 88 88 86 85 83
78 80 82 82 83 84 83 83 83 83 82 84 84 83 83 85 86 87 88 88 88 88 87 86 86 86 84 85 86 85 82 74 70 64 51 48 45 41 37 36 39 44 49 53 54 54 52 55 58 61 62 61 61 60 60 60 60 59 57 56 56 54 50 73 82 82 83 84 82 81 81 82 82 81 81 82 84 85 84 83 81 80 80 81 82 84 84 82 82 82 81 80 82 83 83 86 88 89 89 89 89 89 88
79 82 84 85 85 85 85 85 86 86 87 88 88 87 85 87 88 89 88 89 89 89 88 85 86 87 86 85 84 81 73 65 62 59 55 53 52 50 48 45 41 39 40 47 53 57 55 55 59 62 64 64 63 62 61 61 61 60 58 58 55 53 54 74 83 85 82 83 82 80 82 83 83 82 82 82 83 85 85 84 84 84 83 83 83 84 85 83 83 83 82 81 81 81 80 82 85 87 89 88 87 87 89
84 86 86 86 86 87 86 85 86 88 88 88 87 86 86 86 87 88 88 90 90 88 87 86 85 82 79 77 73 67 61 61 62 62 60 57 53 50 50 51 49 46 41 40 47 55 60 58 60 63 65 65 64 64 63 62 61 60 58 58 51 49 61 77 85 85 83 84 82 81 82 83 83 83 83 83 83 83 83 83 84 85 86 86 86 86 85 83 83 84 84 83 82 81 81 80 81 82 84 84 85 87 87
83 85 84 83 82 83 85 83 86 88 87 86 86 87 86 87 89 91 91 89 88 88 88 85 80 74 66 61 57 56 59 65 67 67 66 62 57 53 50 51 51 51 47 43 46 53 62 62 63 64 65 65 65 65 64 64 62 60 58 56 46 44 65 80 85 85 83 83 82 81 81 82 81 81 83 82 82 81 81 81 82 84 86 87 86 86 86 86 85 84 83 84 83 82 81 81 81 82 82 81 82 84 85
84 85 84 84 84 84 86 83 85 87 87 87 86 85 87 86 90 92 88 88 87 86 87 85 80 74 68 61 58 59 68 71 71 70 69 67 63 58 54 54 54 53 50 49 52 57 63 63 63 63 64 65 65 65 64 63 62 60 58 56 47 47 72 82 85 84 81 81 81 81 81 82 81 81 83 82 82 81 81 81 81 81 82 84 85 86 87 86 85 84 84 84 84 84 82 82 82 82 82 82 81 81 82
82 81 81 82 83 84 85 86 86 87 87 87 87 86 86 86 86 87 87 88 88 88 88 86 84 79 74 69 64 64 72 74 73 72 72 70 67 63 59 58 59 59 57 58 60 62 63 63 63 63 65 66 66 65 63 63 62 61 60 61 56 56 74 80 83 82 79 80 80 80 81 81 81 81 82 81 80 80 80 80 80 80 81 83 83 83 85 84 83 83 84 84 84 83 81 82 83 83 82 83 82 82 84
73 73 73 74 76 78 81 85 86 87 87 88 88 88 85 85 84 84 86 86 87 87 87 86 84 81 78 75 69 67 73 75 75 74 73 72 70 67 63 62 63 64 65 65 66 66 66 65 65 66 67 68 67 65 63 64 64 64 63 64 65 68 76 78 78 79 78 78 78 78 79 79 80 80 80 79 79 79 79 80 80 80 81 82 81 81 82 82 83 82 81 83 83 83 83 82 81 81 81 82 82 82 82
65 64 65 67 69 72 77 81 85 86 88 88 89 88 83 82 81 81 80 82 85 88 88 86 85 83 80 76 71 69 73 76 76 76 74 73 72 69 66 65 66 67 68 68 68 68 68 68 68 68 69 69 67 65 64 65 66 66 66 66 69 74 80 77 76 75 75 76 76 77 78 79 79 80 80 78 78 79 79 79 79 80 81 81 81 80 81 81 81 81 81 82 82 83 83 82 81 81 81 82 82 82 82
58 58 61 63 65 69 74 79 83 85 87 86 85 83 78 76 74 74 77 78 81 83 84 84 83 82 79 76 72 71 74 77 77 77 76 75 73 71 68 66 66 67 68 68 69 69 70 69 69 69 69 69 68 65 64 66 67 67 67 67 71 76 79 77 73 70 72 74 75 76 77 78 79 79 80 79 79 79 80 79 80 80 81 81 81 80 80 80 81 81 81 82 81 81 82 82 82 82 82 82 82 82 82
53 55 57 59 62 67 71 76 79 81 82 80 77 73 69 69 71 73 75 77 78 79 81 83 83 81 79 77 74 73 76 77 77 77 77 76 74 73 70 67 65 65 67 68 69 70 70 69 69 69 69 70 68 65 63 65 66 67 68 68 72 77 78 77 73 69 70 72 74 75 77 78 79 80 80 80 80 81 81 81 81 81 80 80 80 80 80 81 82 82 81 82 82 81 82 81 82 83 82 82 82 83 84
52 54 55 57 60 64 68 71 73 74 73 70 68 67 67 70 74 76 76 76 76 77 78 82 83 81 79 77 76 75 76 77 77 77 76 75 74 73 71 68 65 63 64 67 69 70 70 69 69 69 69 69 67 63 60 62 64 66 67 68 72 76 79 77 73 71 71 71 73 76 77 78 80 80 80 80 80 80 81 82 82 82 80 80 80 81 81 82 82 82 82 83 82 82 82 82 83 83 83 83 83 85 85
54 54 55 56 59 61 64 66 67 67 66 64 65 66 70 74 77 78 77 76 76 77 77 80 81 80 78 77 76 75 76 75 75 74 74 73 73 72 71 69 66 63 61 64 67 69 69 69 68 68 68 68 65 61 56 59 62 65 67 67 72 76 78 75 71 69 71 71 74 77 77 78 79 79 80 80 80 79 80 81 81 81 81 81 81 82 81 82 83 84 83 83 83 83 83 83 83 83 84 84 85 85 85
55 56 56 56 58 60 62 63 63 63 64 65 66 68 72 76 78 79 79 78 77 76 78 79 79 79 78 76 75 74 74 73 72 72 72 71 70 69 69 69 68 65 63 63 65 67 69 69 68 68 67 66 63 59 54 56 59 63 65 66 71 77 79 74 70 68 70 71 74 77 78 78 78 78 78 79 80 80 80 80 80 81 82 82 81 80 80 80 81 82 83 83 83 82 81 83 83 84 85 85 84 84 86
56 57 57 57 58 60 61 62 63 65 67 68 69 70 73 77 79 81 82 81 80 79 79 80 80 79 78 75 73 72 72 71 70 70 69 68 67 66 67 68 67 66 65 65 65 66 67 68 68 68 67 65 62 59 54 54 57 61 64 64 70 76 77 73 69 68 69 70 73 75 77 77 77 77 77 79 79 80 80 80 80 80 81 82 80 79 80 79 79 79 80 81 81 80 80 81 82 82 82 83 83 83 84
55 57 57 58 60 61 62 63 66 68 70 71 71 71 73 77 79 82 83 84 83 82 81 81 81 80 79 76 74 72 70 69 68 68 67 66 65 64 65 66 67 67 66 66 66 66 66 67 68 68 67 66 63 60 54 53 55 59 62 63 69 75 74 71 68 67 68 69 69 71 74 75 76 77 77 78 79 79 79 79 79 79 80 80 79 78 78 78 78 78 79 79 79 79 80 79 80 80 80 81 81 81 81
55 57 58 59 61 62 63 65 69 72 75 76 75 74 74 76 78 81 83 85 86 84 83 81 81 80 79 76 75 72 68 67 67 67 66 65 64 64 64 65 66 67 67 65 65 64 64 65 66 67 66 66 64 61 55 53 54 58 61 62 69 74 72 69 66 66 68 68 68 69 73 74 75 77 77 78 78 78 79 78 78 79 80 79 79 78 78 78 79 80 80 79 79 79 79 80 80 80 80 81 81 80 80
55 58 59 60 61 62 64 67 71 75 78 80 79 78 76 77 79 80 82 85 86 86 84 82 80 79 78 76 73 71 68 67 67 66 65 65 64 64 65 66 66 67 66 65 63 62 61 62 63 64 64 64 63 61 56 54 55 58 61 61 67 71 71 67 66 66 68 66 68 71 73 73 75 76 77 78 76 75 78 78 78 78 78 78 78 78 79 79 80 80 81 80 79 79 79 80 81 81 81 81 80 80 81
55 59 61 61 62 63 64 68 73 77 80 82 81 79 77 77 78 79 80 82 83 83 82 81 80 77 75 73 71 70 69 68 67 66 65 64 64 64 65 66 66 66 65 64 62 61 59 59 60 61 62 62 61 60 57 56 57 59 60 60 63 67 69 68 67 67 67 65 67 70 74 74 74 75 77 78 74 71 76 79 79 78 78 78 78 79 79 80 80 79 80 80 80 80 79 79 80 80 80 80 79 80 82
56 60 62 62 63 63 64 68 73 77 80 82 81 78 76 75 76 77 78 79 80 80 79 79 78 75 73 71 70 69 69 69 67 65 64 64 64 64 65 65 65 65 64 63 61 60 59 58 58 58 59 59 59 59 57 57 57 57 57 57 58 61 65 66 66 66 66 65 66 69 74 72 72 73 74 77 77 75 76 79 80 79 77 78 78 79 79 79 79 79 78 79 79 79 78 77 77 78 78 78 78 79 81
59 62 64 63 63 63 64 68 73 78 81 82 81 78 77 76 75 75 76 77 78 78 77 76 73 70 68 69 68 68 69 68 66 64 63 64 64 64 64 64 63 63 63 62 61 59 58 58 57 57 57 57 57 57 57 56 55 54 53 53 53 54 56 60 64 65 65 65 65 67 70 74 74 73 75 77 78 79 78 79 78 78 77 77 78 79 79 79 78 78 77 78 78 78 77 77 76 76 76 77 77 79 82
64 65 66 65 64 64 65 69 74 78 81 81 80 79 79 77 75 75 76 76 76 75 73 69 64 61 61 62 64 65 67 66 64 63 63 63 63 63 63 63 62 62 61 60 58 57 58 58 57 56 55 55 55 55 54 53 52 51 50 50 50 50 50 52 55 59 62 63 64 65 70 77 79 79 78 77 78 79 77 77 76 76 76 77 77 78 79 79 78 77 77 78 78 77 77 77 76 75 76 76 77 78 80
70 68 67 66 66 66 68 72 75 78 80 80 79 79 80 77 77 77 76 75 74 72 69 65 64 64 64 65 65 66 66 65 64 63 62 62 62 62 62 62 62 60 58 55 54 55 57 57 56 55 54 53 53 52 51 50 48 48 48 48 48 48 47 48 48 50 54 59 59 61 71 78 80 80 78 78 77 77 77 75 74 74 75 75 77 78 79 79 77 76 76 77 78 77 76 76 75 74 75 76 76 77 78
75 72 69 67 67 69 72 74 77 78 78 78 78 79 80 77 77 77 76 74 73 70 65 65 66 68 67 68 68 67 66 65 64 63 61 61 60 60 60 60 58 55 51 50 52 55 56 55 55 54 53 52 52 50 47 45 44 45 46 46 47 46 46 46 46 46 48 53 52 53 62 76 79 78 77 77 77 76 76 75 73 73 73 74 75 76 78 78 76 74 74 76 76 76 75 74 73 73 74 75 76 76 76
76 73 69 68 69 71 73 75 77 77 76 77 78 80 82 77 76 77 75 73 71 68 62 65 67 67 67 68 68 68 67 67 66 64 63 61 59 57 56 55 51 47 45 49 52 54 54 53 52 52 52 51 50 48 44 42 43 44 46 46 46 45 45 45 46 46 46 48 46 46 56 74 77 75 76 73 73 73 73 72 72 71 71 72 73 75 77 78 77 75 74 75 75 75 75 73 73 74 74 74 75 75 75
75 72 69 69 69 70 72 74 76 77 76 77 81 83 83 76 76 77 74 71 69 65 62 64 65 66 66 67 68 68 68 67 66 65 63 59 55 51 48 46 43 42 45 50 52 52 52 51 51 50 50 49 48 45 42 41 43 45 46 46 45 45 45 45 46 46 45 45 40 40 54 74 78 76 75 72 70 70 70 68 68 69 70 71 72 73 75 76 75 73 73 73 73 74 74 73 73 74 73 73 73 74 75
74 70 69 69 69 69 71 74 76 77 77 78 82 85 82 76 77 77 72 70 68 64 61 63 64 64 65 66 66 66 65 64 63 62 60 54 48 44 43 43 44 46 49 50 50 51 50 50 49 48 48 47 47 47 45 44 44 45 45 44 44 44 45 46 46 45 44 42 35 35 55 72 76 74 72 69 68 68 69 68 68 69 69 70 71 72 74 73 72 71 71 70 70 70 71 73 73 72 71 71 72 73 73
72 69 68 68 68 69 71 74 76 77 78 80 84 85 80 77 78 77 73 73 69 63 59 63 64 64 64 64 64 64 64 63 62 60 56 48 44 43 46 49 50 50 49 49 49 49 49 48 47 47 46 47 47 47 46 44 44 44 43 43 43 44 45 45 45 44 43 40 33 32 48 71 76 71 67 65 65 66 68 69 70 71 69 70 70 71 71 70 69 69 68 68 68 68 69 71 72 71 69 69 70 71 72
70 68 68 67 68 69 70 73 75 77 78 81 84 84 79 79 79 78 77 74 67 61 62 64 65 65 64 64 64 63 63 62 60 57 50 43 42 45 51 52 52 50 48 48 48 47 47 47 47 47 47 47 45 44 42 41 41 42 43 42 43 43 44 44 44 43 42 38 32 32 42 66 72 70 68 68 68 68 68 69 70 70 69 69 70 70 69 68 67 67 67 67 68 69 69 70 70 69 69 70 70 71 71
68 68 68 68 68 68 69 72 75 77 79 82 83 82 78 78 78 77 74 69 65 64 66 66 65 64 64 63 63 62 61 61 59 54 45 39 40 44 48 48 47 45 45 45 45 46 46 47 48 48 47 45 43 40 38 38 40 42 42 42 43 43 43 44 43 43 42 37 33 31 32 49 61 67 67 68 68 69 69 69 70 71 70 70 70 69 68 67 67 68 67 68 69 69 69 69 69 69 71 72 72 72 73
68 68 68 68 68 68 69 72 75 77 79 81 81 80 78 77 76 73 68 66 67 68 68 67 65 64 63 62 61 61 61 60 57 50 39 35 36 39 39 39 40 41 43 44 45 45 46 47 47 47 46 44 41 39 38 40 41 43 42 42 43 43 43 44 44 43 42 37 33 31 30 32 40 51 66 67 68 69 70 70 70 70 72 72 71 69 69 69 70 70 70 70 70 70 70 71 71 72 73 74 74 74 74
68 68 69 69 69 69 70 73 75 77 79 80 79 79 77 76 73 69 66 66 67 68 68 66 65 63 62 61 60 60 59 57 52 43 33 32 34 35 36 36 38 40 43 45 46 46 46 46 46 45 44 43 42 41 41 42 43 43 42 42 43 43 43 44 44 44 42 38 34 31 31 32 33 40 58 63 66 67 69 71 71 70 70 72 72 73 73 73 73 73 73 72 71 72 72 73 74 74 75 74 75 75 75
68 69 69 69 70 70 71 73 75 77 78 77 77 77 77 75 72 68 66 66 67 67 67 66 64 63 61 60 59 58 55 50 42 35 31 34 36 37 39 41 43 44 46 47 47 46 45 45 44 43 42 43 43 43 43 43 43 43 42 42 43 43 43 44 44 44 42 38 34 30 30 32 34 36 40 50 58 63 66 70 72 73 71 72 73 74 75 76 75 74 73 72 72 74 75 75 75 75 75 75 75 76 76
68 69 69 70 70 70 70 72 74 76 76 75 76 77 77 75 72 69 66 66 67 67 66 64 62 60 58 58 57 52 43 36 32 31 33 37 39 40 41 44 45 46 46 44 43 42 42 41 40 40 41 43 44 43 43 43 43 43 43 43 43 43 43 44 44 43 40 37 34 31 31 32 34 35 36 36 42 50 53 65 71 74 76 75 73 73 76 76 75 74 73 73 75 76 76 76 76 76 76 76 76 77 77
67 68 69 69 69 68 67 70 73 75 74 74 75 77 77 75 72 68 63 64 65 65 62 60 57 56 55 53 45 34 25 25 28 32 35 37 39 41 43 44 44 43 40 38 36 35 34 35 36 38 42 44 44 44 44 43 43 43 43 43 43 43 43 44 43 41 39 36 35 33 34 35 36 36 36 35 38 42 45 61 69 72 74 74 73 74 76 74 74 74 73 74 75 75 75 76 76 76 76 77 77 78 77
67 67 68 68 66 65 66 70 73 74 73 73 75 76 77 74 69 62 57 59 60 60 56 53 51 50 50 43 32 23 21 25 28 31 32 34 36 38 41 40 39 36 34 32 30 29 29 31 34 38 42 44 45 44 44 43 41 41 41 42 43 43 43 43 42 40 38 36 36 36 37 37 37 37 37 37 39 42 45 57 64 68 70 70 71 72 73 71 71 71 72 73 73 74 74 75 75 76 77 77 77 77 78
68 68 69 67 66 66 67 71 73 73 73 73 74 75 75 69 60 52 48 51 51 50 48 47 46 46 45 34 25 19 20 23 26 28 29 31 33 35 36 35 33 32 33 31 30 30 31 33 36 39 42 44 44 44 43 41 39 37 38 40 42 42 43 43 41 39 37 37 38 39 40 39 39 38 39 40 41 41 43 50 56 60 62 63 65 67 67 67 68 69 70 70 71 71 72 73 75 76 77 77 77 77 77
69 70 70 68 67 67 69 71 72 72 72 72 72 72 70 61 51 42 39 41 43 44 44 44 44 43 39 28 22 20 20 22 24 26 28 30 32 32 31 29 30 31 34 34 33 33 34 36 37 40 43 44 43 42 40 38 35 34 35 37 39 40 41 41 39 37 37 39 40 42 42 41 40 40 40 42 42 42 41 44 46 50 54 57 60 62 63 64 66 67 68 68 69 69 70 72 74 75 76 77 77 77 77
71 71 70 69 68 68 70 71 71 70 70 70 69 67 64 54 43 35 32 36 39 42 44 44 43 40 33 25 23 24 24 24 25 27 29 30 30 28 27 25 26 29 33 34 34 35 36 37 38 40 42 43 42 40 37 35 33 32 33 35 37 37 38 37 36 36 38 40 42 43 43 42 41 40 41 41 42 42 42 43 43 43 45 51 55 58 62 64 65 65 65 66 66 67 69 71 73 75 76 77 77 76 76
71 71 71 69 68 68 69 69 69 68 68 67 66 64 60 48 37 30 31 36 40 42 42 41 38 34 27 23 25 28 28 28 28 30 30 30 28 26 24 22 23 25 29 32 33 35 36 37 39 40 42 42 41 38 34 33 32 33 34 34 34 34 34 34 35 37 40 42 44 44 43 41 40 40 40 41 41 42 43 44 44 42 41 45 50 56 59 63 64 64 63 64 64 66 68 70 72 74 76 76 76 75 75
72 72 71 69 67 66 67 67 67 66 66 65 65 62 55 41 32 29 33 38 40 39 36 33 30 27 24 23 26 29 32 32 32 32 31 29 26 23 22 21 20 21 24 28 31 33 35 36 38 39 41 41 39 36 32 31 31 31 32 32 31 31 32 33 35 38 41 44 44 44 42 41 40 40 40 41 41 42 43 44 44 44 41 40 45 51 56 58 60 60 60 62 64 65 67 70 72 74 75 75 75 75 75
72 72 71 68 66 65 65 65 65 65 65 64 63 59 48 34 27 28 34 36 35 33 29 26 25 24 23 25 27 30 33 33 33 32 31 28 25 22 21 20 18 18 20 24 27 30 32 33 35 37 39 39 38 36 32 30 29 30 30 31 31 32 33 35 36 39 42 44 43 42 41 41 41 41 41 41 42 42 44 44 44 43 41 38 39 43 52 54 55 56 57 60 63 65 67 69 71 72 74 74 74 74 75
73 73 72 68 66 64 63 64 64 64 64 63 61 55 41 29 25 26 31 31 29 26 23 22 23 24 26 27 29 31 34 33 33 32 31 29 25 22 20 19 17 17 19 22 25 27 30 31 33 35 36 37 36 35 32 31 31 31 32 33 35 36 36 37 38 39 41 42 41 40 40 41 41 41 41 42 43 44 44 44 44 43 40 37 36 37 43 47 48 49 54 57 61 65 67 68 69 71 72 72 73 73 74
73 73 72 68 65 64 63 63 63 63 62 62 58 49 35 27 24 25 27 26 24 23 21 21 23 26 27 29 30 32 34 34 34 34 33 30 26 23 20 18 17 17 18 20 24 26 29 30 32 34 35 36 36 34 32 32 33 35 36 38 39 40 39 38 39 39 40 40 40 40 40 41 41 41 42 43 44 44 44 44 43 42 40 37 35 35 36 36 35 36 47 53 59 64 66 67 68 68 69 71 72 72 73
72 73 71 68 65 64 63 63 63 62 61 60 54 44 30 25 24 25 26 24 23 22 21 22 25 28 31 30 31 32 33 34 35 35 34 30 26 22 19 17 16 16 17 19 22 25 28 30 32 33 35 36 35 34 33 35 37 39 41 42 42 42 41 39 39 39 39 39 40 40 41 41 41 42 42 44 44 44 44 44 43 41 39 38 36 35 35 33 31 32 37 49 56 61 63 65 66 66 67 69 70 72 73
71 72 71 68 65 64 63 63 62 61 60 57 50 40 27 24 23 25 26 26 24 22 22 24 27 30 32 32 32 33 34 35 35 36 35 29 24 20 18 15 15 16 16 17 19 23 27 30 32 34 36 36 36 35 35 36 37 38 39 41 41 42 41 40 39 39 39 40 40 41 41 41 41 42 43 43 44 44 44 43 42 40 39 38 37 37 36 34 32 32 32 44 53 59 61 61 62 64 66 67 69 71 72
71 72 70 67 65 64 64 64 63 61 59 54 47 37 26 24 25 27 30 30 28 26 24 26 28 30 31 31 33 35 36 36 37 37 37 30 23 18 16 15 17 20 19 17 18 21 25 29 32 35 37 38 38 37 35 33 32 32 33 36 39 40 40 40 40 40 41 41 41 42 42 42 42 42 42 43 43 43 43 41 40 39 38 38 38 38 36 35 34 33 32 42 51 56 58 58 58 60 63 65 68 70 71
71 72 70 67 66 65 65 65 63 61 59 54 46 36 25 25 28 32 34 34 32 29 27 27 28 29 29 29 33 37 38 39 39 39 36 30 27 26 24 17 17 23 30 26 24 25 27 31 34 37 39 39 38 34 29 26 25 26 29 33 36 38 39 40 40 41 41 41 41 41 41 42 42 42 43 43 42 41 40 38 37 37 38 38 38 38 37 36 35 34 34 38 44 46 43 41 48 56 61 64 67 70 71
72 73 72 69 67 66 66 66 64 62 59 55 47 36 26 28 33 36 37 37 34 31 28 27 26 27 28 28 33 38 40 41 41 38 32 30 31 33 35 25 20 21 28 33 33 32 32 34 36 38 40 38 34 28 22 22 24 27 30 33 35 37 38 37 37 36 36 36 37 38 40 41 41 41 40 39 38 37 36 36 37 37 38 38 38 38 37 36 36 36 35 37 38 36 32 29 35 46 60 63 67 70 71
73 75 74 71 69 68 67 67 64 62 60 56 46 36 27 31 35 38 39 38 35 31 28 25 24 25 26 27 31 35 39 42 40 36 28 29 32 33 32 29 26 28 38 34 36 39 38 38 39 40 40 38 31 24 21 23 25 26 27 28 29 29 29 29 29 29 29 29 31 34 36 37 37 36 36 35 34 34 35 36 37 38 38 38 37 37 37 37 37 36 36 36 36 36 34 32 31 38 58 62 67 69 69
75 76 76 73 72 70 69 67 65 62 59 55 45 35 28 31 35 38 39 39 36 32 28 24 22 22 25 27 30 34 38 40 37 32 25 28 31 32 29 36 36 37 44 34 35 39 40 41 43 44 42 36 28 22 21 24 25 25 24 24 24 25 25 26 26 27 27 27 28 30 31 32 31 31 31 31 32 33 34 35 36 36 37 37 37 37 37 37 37 37 36 36 36 36 36 34 32 37 57 62 66 67 65
75 77 77 75 74 72 70 68 65 62 59 53 44 35 28 31 34 37 39 39 36 32 28 25 21 20 23 26 28 31 35 36 32 27 22 27 30 32 33 48 58 63 66 47 34 29 34 34 29 24 24 23 21 21 22 22 22 22 22 22 22 22 23 25 26 27 27 28 28 29 29 29 29 29 29 30 31 32 33 33 34 34 35 35 36 36 36 36 36 36 36 36 36 36 37 36 36 41 56 61 64 65 63
75 77 77 76 75 73 72 69 66 62 59 54 45 35 28 28 30 32 33 33 32 29 27 24 22 20 20 21 25 28 30 30 27 23 23 28 30 31 37 72 82 72 47 42 35 29 29 37 40 36 22 22 22 22 22 20 19 19 19 19 19 20 21 22 24 25 26 27 28 28 29 28 28 28 28 28 29 30 31 32 32 33 33 34 34 34 34 34 35 35 35 36 36 37 37 36 39 46 58 61 62 62 61
75 77 78 77 76 74 72 70 66 62 60 55 47 37 29 26 26 27 28 29 29 27 25 23 21 19 18 17 19 23 26 25 23 23 27 32 32 29 24 41 45 40 34 33 33 34 38 50 53 46 29 26 24 22 21 20 20 20 20 20 21 21 21 21 22 23 24 25 26 26 26 26 25 25 25 26 27 28 30 31 31 32 32 33 33 33 33 33 33 33 34 35 36 36 37 36 43 51 57 59 60 60 60
75 77 78 77 77 75 73 70 67 63 60 55 48 39 31 27 25 26 29 30 29 27 25 22 20 19 17 15 15 16 20 20 22 25 30 36 37 33 25 24 30 37 34 35 35 37 45 59 52 36 27 26 25 23 22 22 23 23 23 23 24 23 23 22 22 22 22 22 22 22 21 20 20 20 20 22 23 26 27 29 29 30 30 31 31 31 31 31 32 33 34 35 36 36 37 38 44 52 55 57 58 59 60
75 76 78 78 77 76 73 70 67 63 60 55 49 41 33 28 26 27 28 29 28 26 24 22 21 19 16 14 13 13 15 15 22 31 35 40 42 40 31 27 28 29 27 37 36 37 54 58 51 42 39 33 28 26 25 25 26 26 26 27 27 27 26 25 23 21 20 19 18 17 17 17 17 18 18 19 21 22 24 25 26 27 27 28 28 29 29 30 31 32 33 34 36 36 37 39 45 52 54 56 58 59 60
75 76 78 79 78 76 74 71 68 64 60 55 49 42 34 28 26 25 25 26 26 25 24 22 20 18 15 12 11 11 12 10 17 28 38 42 44 43 38 32 29 27 29 33 31 31 40 50 54 55 55 42 33 29 29 28 28 28 28 28 29 29 29 27 24 21 19 19 18 18 17 17 17 18 18 19 19 20 21 22 24 25 26 26 27 28 29 30 31 32 33 34 36 37 39 38 44 51 53 55 58 60 60
77 78 80 80 78 76 74 71 69 65 61 56 50 44 35 29 26 24 24 26 27 27 25 22 19 18 16 13 11 10 10 8 12 20 35 39 42 42 39 37 35 32 30 32 33 32 30 37 50 60 57 48 42 38 34 31 30 29 28 29 30 31 29 27 24 21 20 20 20 20 19 19 18 18 18 19 19 20 21 22 23 25 26 27 27 28 29 30 31 32 33 35 37 38 40 39 44 50 53 56 58 60 61
79 80 81 80 79 76 74 71 69 66 62 57 52 45 38 32 27 25 25 27 28 29 27 24 21 19 17 13 11 10 10 8 10 15 25 31 36 38 40 42 42 40 36 37 38 39 41 42 42 44 49 61 58 49 46 39 33 29 27 28 29 28 26 24 22 22 22 22 22 22 21 20 19 19 19 19 20 21 22 24 25 26 27 27 28 29 29 30 31 32 34 36 38 39 40 41 46 52 55 58 60 60 61
Wind_Speed
12 12 12 12 12 12 11 11 11 11 11 11 10 10 10 10 10 10 9 9 9 9 9 9 9 9 9 9 9 9 9 8 8 8 7 7 6 6 6 5 6 6 7 7 8 8 8 8 8 8 8 8 8 8 8 8 8 7 7 6 6 6 7 10 10 9 9 9 9 8 8 8 9 9 8 8 8 8 9 9 9 9 9 9 9 9 9 9 9 9 8 8 8 8 7 8 8 8 8 8 8 8 8
12 12 12 12 12 11 11 11 11 10 10 10 10 10 10 9 9 9 9 9 9 9 9 9 9 8 8 9 8 8 8 8 8 8 7 7 6 5 5 5 5 6 6 6 7 7 7 8 8 7 7 7 7 7 7 8 8 8 8 8 8 8 8 9 9 9 10 9 9 8 8 8 8 8 8 8 8 8 8 8 9 9 9 9 8 8 8 9 9 9 9 8 8 8 7 7 7 7 7 8 8 8 8
12 12 12 12 11 11 11 10 10 10 10 10 9 9 9 9 8 8 8 8 8 8 8 8 8 8 8 8 8 8 8 8 8 8 8 7 6 5 4 4 4 4 5 5 5 6 6 7 7 7 7 7 7 7 7 7 8 8 8 9 9 9 9 9 9 9 9 9 9 8 8 8 8 8 8 8 8 8 8 8 8 8 8 8 8 8 8 8 8 8 9 8 9 9 8 8 7 7 7 7 7 7 7
12 12 12 11 11 11 10 10 10 10 9 9 9 8 8 8 8 8 8 8 8 8 8 7 7 7 7 7 7 7 7 7 8 9 10 9 8 6 4 3 2 3 3 3 4 4 5 6 6 6 6 6 6 6 6 7 8 8 9 10 10 10 9 9 9 9 9 10 9 9 9 9 8 8 8 8 8 8 8 8 8 8 8 8 8 8 8 8 8 8 8 8 9 9 8 8 8 8 8 8 7 7 7
12 12 11 11 11 10 10 10 9 9 8 8 8 8 7 7 7 7 7 7 7 7 7 6 6 6 6 6 6 6 7 8 9 10 11 11 9 8 6 4 2 2 2 2 3 4 5 5 6 6 6 6 6 6 6 6 8 9 10 11 11 10 9 9 9 9 9 9 9 9 9 9 9 8 8 8 8 9 9 9 9 8 8 8 8 8 8 8 8 8 8 8 8 8 8 9 9 9 8 8 8 8 7
12 12 11 11 10 10 10 9 9 8 8 7 7 7 7 7 7 7 7 7 6 6 5 5 5 5 5 5 5 6 7 9 10 11 12 12 11 10 8 6 4 2 2 2 3 3 4 5 5 5 5 5 5 6 6 7 8 9 10 11 11 10 9 9 9 9 9 9 9 9 9 9 9 9 9 8 8 9 9 9 9 9 9 9 9 8 8 8 8 8 8 8 8 8 8 8 8 9 9 8 8 8 8
12 12 11 11 10 10 10 9 9 8 8 7 7 6 6 6 6 6 6 6 5 4 4 4 4 4 4 5 6 7 9 10 11 12 12 12 12 11 10 8 6 4 3 3 3 4 4 5 5 5 5 5 5 6 7 8 8 9 9 10 10 10 9 9 9 9 9 9 9 9 9 9 9 8 9 9 9 9 9 9 9 9 9 9 9 9 8 8 8 8 8 8 8 8 8 8 8 8 9 9 9 9 8
12 12 12 11 11 10 10 9 8 8 7 7 7 6 6 5 6 6 5 4 4 3 3 3 3 4 5 6 6 8 9 10 11 11 12 12 12 12 11 9 7 6 5 5 5 5 5 5 5 5 5 5 6 7 8 8 8 8 8 10 11 11 10 9 9 9 9 9 9 9 9 9 9 9 9 9 9 9 9 9 9 9 9 9 9 9 9 8 8 8 8 8 8 8 8 8 8 8 8 8 8 9 9
13 12 12 11 11 10 10 9 8 8 7 7 6 6 5 5 5 4 4 3 3 3 2 3 3 4 5 6 6 7 8 9 10 11 11 12 12 12 11 10 8 7 7 6 6 5 5 5 5 5 5 5 6 7 8 9 8 8 8 9 11 12 10 10 10 9 9 9 9 9 9 9 9 9 9 9 9 9 9 9 9 9 9 9 9 9 9 8 8 8 8 9 9 8 8 8 8 8 8 8 8 9 9
13 13 12 11 11 10 10 9 8 7 7 6 6 6 5 5 4 4 3 2 2 2 2 2 2 3 4 5 5 6 7 8 9 9 10 11 11 12 11 10 8 8 7 7 6 6 5 5 5 5 5 5 7 8 9 9 8 8 8 9 11 11 10 10 10 10 9 9 9 9 9 9 9 9 9 9 9 9 9 9 9 9 9 9 8 8 9 9 9 9 8 9 9 9 8 8 8 8 8 8 8 8 8
13 12 11 11 10 10 9 9 8 7 6 6 5 5 5 5 4 3 2 2 2 2 2 1 1 2 3 4 4 5 6 6 7 8 8 9 10 11 10 10 8 7 7 7 6 6 5 5 4 4 5 6 7 8 9 9 9 8 9 10 10 10 9 10 10 10 9 9 9 9 9 9 9 9 9 9 9 9 9 9 9 8 8 8 8 8 8 8 8 8 8 8 8 8 8 8 8 8 8 9 9 9 9
12 11 11 10 10 9 9 8 8 7 6 5 5 5 5 4 3 2 2 1 1 1 1 0 1 2 3 4 4 4 5 5 6 7 7 7 8 9 9 9 8 7 6 6 6 5 5 5 4 4 4 5 7 8 8 8 8 9 9 10 9 8 8 9 10 10 10 9 9 9 9 9 9 9 9 9 9 8 8 8 8 8 8 8 8 8 8 8 8 8 8 8 8 8 8 8 8 8 8 9 9 9 9
11 10 10 9 9 9 8 8 8 7 6 5 5 5 4 4 3 3 2 2 2 1 1 1 2 3 3 3 4 4 4 4 5 5 6 6 6 7 8 8 8 7 6 6 5 5 5 4 4 4 4 5 7 8 8 8 8 8 9 9 9 8 8 9 10 10 10 9 9 9 9 9 9 9 9 9 9 9 8 8 8 8 8 8 8 8 8 8 8 8 8 8 8 8 8 8 8 8 8 8 9 9 9
10 9 9 8 8 8 8 8 7 7 6 5 5 5 5 4 4 3 2 2 2 2 2 2 2 3 3 3 3 3 3 4 4 5 5 5 5 5 6 6 7 6 6 5 5 4 4 4 4 4 4 6 7 8 8 8 7 8 8 8 8 7 7 8 10 10 10 9 9 9 8 8 8 8 8 8 8 8 8 8 8 8 8 8 8 8 8 8 8 8 8 8 8 8 8 8 8 8 8 8 9 9 9
9 9 8 8 8 8 7 7 7 7 6 6 5 5 5 4 4 3 2 2 3 3 3 2 3 3 4 4 4 3 3 4 4 4 4 4 4 4 4 5 5 6 6 5 4 4 4 4 4 4 5 6 8 9 9 8 7 7 7 7 7 6 6 8 9 10 10 10 9 9 8 8 8 8 8 8 8 8 8 8 8 8 8 8 8 8 8 8 8 8 8 8 8 8 8 8 8 8 9 9 9 9 9
9 9 8 8 8 8 7 7 7 6 6 5 5 5 5 4 3 2 1 2 2 2 2 2 3 3 4 4 4 4 4 4 4 4 4 4 4 3 3 3 4 5 6 5 5 4 4 4 5 5 6 7 9 10 9 8 7 7 7 7 6 6 6 8 9 10 10 10 9 9 8 8 8 8 8 8 8 8 8 8 8 8 8 8 8 8 8 8 8 8 8 9 8 8 8 9 9 9 9 9 9 9 9
9 9 8 8 8 8 8 7 7 6 5 5 4 4 4 3 3 2 1 0 1 1 1 2 2 3 3 4 4 4 4 4 4 4 3 3 3 3 3 3 3 4 5 6 6 5 5 5 5 6 7 8 9 10 10 8 7 7 6 7 6 5 6 8 9 10 10 10 9 9 9 8 8 8 8 8 8 8 8 8 8 8 8 8 8 7 7 7 8 8 8 9 9 8 8 9 9 9 9 9 9 9 10
9 9 9 8 8 8 8 7 6 6 5 4 3 3 3 3 2 2 1 1 1 1 1 1 1 2 2 3 3 3 3 4 4 3 3 3 3 3 3 3 4 4 5 6 6 6 6 6 6 7 8 9 10 10 10 9 7 6 6 7 6 5 6 8 9 10 10 10 9 9 9 8 8 8 8 8 8 8 8 8 8 8 8 8 7 7 7 7 7 7 8 8 8 8 8 8 8 8 9 9 9 9 9
10 9 9 9 8 8 7 6 6 5 4 4 3 2 2 2 2 2 1 1 1 2 2 2 2 1 2 2 3 3 3 3 4 3 3 3 3 3 4 4 4 4 5 6 6 7 7 7 7 7 8 9 10 10 10 9 7 6 6 7 6 5 6 8 9 10 10 10 10 9 9 8 8 8 8 8 8 8 8 8 7 7 7 7 7 7 7 7 7 7 7 8 8 8 8 8 8 8 8 9 9 9 9
10 10 9 9 9 8 7 6 5 4 4 3 2 2 2 2 2 2 1 1 2 2 2 2 2 2 2 2 2 3 3 4 4 4 3 3 3 3 4 4 4 4 5 5 6 7 7 7 7 8 8 9 10 10 10 9 8 7 7 7 6 6 6 8 9 10 10 10 10 9 8 8 8 8 8 8 8 7 7 7 7 7 7 7 7 7 7 7 7 8 8 8 8 8 8 8 8 9 9 9 9 9 9
10 10 10 10 10 9 8 6 5 4 4 3 2 2 2 2 2 1 1 2 2 2 3 3 3 3 3 2 2 3 3 4 5 5 4 3 2 3 3 3 3 4 4 5 6 6 7 7 7 8 8 9 9 10 10 9 8 7 7 7 7 6 7 8 8 9 10 10 10 10 9 8 8 8 8 7 7 7 7 7 7 7 7 7 7 7 7 8 8 8 8 8 8 8 8 8 9 9 9 9 9 9 9
11 11 11 11 11 10 9 7 6 5 5 4 3 2 2 1 1 1 1 2 2 2 3 4 4 4 3 3 3 3 4 5 5 4 3 2 1 1 2 2 2 3 4 5 5 6 7 7 7 8 8 8 9 9 9 8 8 8 8 7 7 7 7 8 8 9 9 10 11 10 9 8 7 7 7 7 7 7 7 7 7 7 7 7 7 7 7 8 8 8 8 8 8 8 8 8 9 9 9 9 9 9 9
12 12 12 12 11 11 9 8 7 6 5 5 4 3 2 1 1 1 2 2 2 2 3 4 4 3 3 3 3 4 4 4 4 2 1 0 1 1 1 2 3 4 5 5 6 6 6 7 7 7 7 8 8 8 8 8 8 8 8 8 7 8 8 8 8 9 10 11 11 11 9 8 7 7 7 7 7 7 7 7 7 7 7 7 7 7 7 8 8 8 8 8 9 9 9 9 9 9 9 9 9 9 10
13 13 12 12 11 11 10 8 7 6 6 6 5 4 3 2 1 2 2 2 2 2 2 3 3 2 3 3 4 3 3 2 1 1 0 1 2 2 3 4 5 6 6 7 6 6 6 7 7 7 7 7 7 7 8 8 8 8 8 8 8 8 9 9 9 9 10 11 12 11 9 7 7 6 7 7 7 7 7 7 7 8 7 7 7 8 8 8 8 9 9 9 9 9 9 9 9 9 9 9 9 9 10
14 13 13 12 11 11 10 9 7 6 6 6 6 5 4 2 2 2 2 2 2 2 2 1 2 2 3 3 3 2 1 1 1 2 3 3 4 5 6 7 8 8 8 8 6 6 5 6 6 6 6 6 7 8 8 9 9 9 8 8 8 9 9 10 11 11 11 12 12 11 9 7 6 6 6 7 7 7 7 7 8 8 8 8 8 8 8 8 9 9 9 9 9 9 9 9 9 9 9 9 9 9 10
15 14 13 12 11 10 9 8 7 7 7 7 7 6 4 3 2 2 1 1 2 2 1 1 2 3 3 2 1 1 2 2 3 4 5 6 7 8 8 9 9 9 9 7 5 4 5 6 6 6 7 7 8 9 9 9 9 9 8 8 8 9 10 10 11 11 12 12 13 11 8 6 6 6 6 7 7 8 8 8 8 8 8 8 8 8 8 9 9 9 9 9 9 10 10 10 10 10 10 10 10 10 10
15 15 13 12 11 10 9 8 8 8 7 8 7 6 5 3 2 2 1 2 2 1 1 2 3 3 2 1 2 3 3 4 5 6 7 8 9 9 9 9 9 8 6 5 4 4 5 6 6 7 8 8 9 9 9 8 7 7 8 8 9 9 9 10 11 11 12 13 13 11 7 6 5 6 7 7 8 8 8 9 9 9 8 8 8 8 9 9 9 9 10 10 10 10 10 10 10 10 10 10 10 10 11
16 14 13 12 11 10 10 10 10 9 9 9 8 7 5 4 2 2 2 2 2 1 1 2 3 2 2 2 3 4 4 5 6 7 8 9 10 10 9 8 7 5 4 3 4 4 5 6 7 7 8 8 9 9 9 7 6 6 7 8 9 9 9 9 10 11 13 14 13 10 6 5 5 6 7 7 8 9 9 9 9 9 9 9 9 9 9 9 9 10 10 10 10 11 11 10 10 10 10 11 11 11 11
16 14 13 12 11 11 12 12 11 11 10 10 9 8 5 4 3 3 3 3 3 3 2 2 3 2 2 3 4 4 5 6 7 8 9 10 10 9 8 7 5 5 4 4 5 5 6 7 7 7 8 8 9 9 9 7 6 6 7 8 9 9 9 9 10 11 13 14 13 8 4 5 5 6 7 8 9 10 10 9 9 9 9 9 9 9 9 9 10 10 10 11 11 11 11 11 11 11 11 11 11 11 11
17 14 13 11 11 11 13 13 12 12 11 10 9 8 6 5 4 4 5 5 5 4 4 3 3 3 3 4 5 5 6 7 8 9 10 10 9 8 7 6 5 6 6 6 6 7 7 7 8 8 8 8 9 9 9 8 7 6 7 8 8 8 8 9 10 12 13 13 11 7 4 4 5 6 8 9 10 11 10 10 10 9 9 9 9 9 10 10 10 10 11 11 11 11 11 12 12 12 12 12 12 12 12
16 14 12 11 11 12 13 14 13 12 11 11 9 7 6 5 5 5 6 6 5 5 4 4 3 3 4 5 5 6 7 7 8 9 9 9 8 7 6 6 6 6 6 6 7 7 7 8 8 8 8 9 10 10 9 7 6 6 7 7 7 8 8 9 10 11 12 12 9 6 4 4 5 7 9 10 11 11 11 10 10 10 9 9 10 10 10 10 10 11 11 11 12 12 12 12 12 12 12 12 12 13 13
14 12 12 11 11 12 12 13 13 12 11 10 8 7 6 6 7 7 6 6 5 5 5 5 5 4 5 5 6 6 7 8 8 9 9 8 7 6 6 6 6 6 6 6 6 6 7 7 8 8 9 10 10 9 7 5 5 5 6 7 7 7 8 9 10 11 11 10 8 5 4 4 5 7 9 10 11 11 11 11 10 10 10 10 10 10 10 11 11 11 12 12 12 12 12 12 12 12 12 13 13 13 13
13 12 12 12 12 11 11 12 12 12 11 9 8 7 7 8 8 7 7 6 6 6 6 6 6 6 6 6 6 7 8 8 9 9 8 7 6 5 5 6 5 5 5 5 6 6 6 7 7 8 9 9 8 7 4 3 3 5 6 7 7 7 8 9 10 10 10 10 8 6 5 5 6 8 10 10 11 11 11 11 11 11 11 11 11 11 11 11 12 12 12 12 12 12 12 12 13 13 13 13 13 13 13
13 13 12 12 12 11 11 11 11 11 10 9 9 9 9 9 9 8 7 7 7 7 7 7 6 6 7 7 7 8 8 9 10 9 7 5 4 4 4 4 5 5 5 6 6 6 6 7 7 8 8 8 6 4 3 2 3 4 6 7 7 7 8 8 9 9 10 9 8 7 6 6 7 9 10 10 10 11 11 11 11 11 11 11 11 11 12 12 12 12 13 13 13 13 13 13 13 13 13 13 13 14 14
14 14 13 13 12 12 11 11 11 11 10 10 10 10 11 10 10 9 8 8 8 8 7 7 7 7 7 8 8 8 9 10 10 8 6 5 4 4 5 5 5 6 7 7 8 8 8 8 8 8 7 6 5 4 3 2 3 4 5 6 6 7 7 8 8 9 9 9 8 8 7 8 9 9 10 10 10 11 11 11 11 11 11 11 12 12 12 12 13 13 13 13 13 13 13 13 13 13 13 13 13 13 13
16 15 14 14 13 13 12 12 12 12 11 11 11 12 12 12 11 10 9 9 9 8 8 8 7 7 8 8 8 9 9 9 8 7 5 5 5 5 5 6 7 8 9 9 10 10 9 9 8 7 6 5 4 4 3 3 4 4 4 5 6 6 7 7 8 9 9 9 8 8 9 10 10 10 10 10 10 11 11 11 12 12 12 12 12 12 12 13 13 13 13 13 14 14 14 14 14 14 13 13 13 13 13
17 17 16 15 15 14 13 13 13 12 12 12 13 13 13 12 11 11 10 10 9 9 8 8 8 8 8 8 8 9 9 8 7 6 5 5 5 5 6 7 8 9 10 10 11 10 9 8 7 5 4 3 3 4 4 5 5 5 4 5 5 6 6 7 8 8 9 8 8 9 10 10 11 11 10 10 10 11 12 12 12 12 12 12 12 12 13 13 13 13 14 14 14 14 14 14 14 14 14 13 13 13 13
17 17 17 16 15 14 14 14 13 13 13 13 13 14 13 13 12 11 11 10 10 9 9 9 8 8 8 8 8 8 7 7 6 5 5 5 5 5 6 7 8 9 9 9 9 8 7 5 4 3 2 2 3 4 5 6 6 5 5 4 5 5 6 7 7 8 8 8 8 9 10 11 11 11 11 10 11 11 12 12 12 12 12 12 12 12 13 13 14 14 14 14 14 14 14 14 14 14 14 13 13 13 13
17 17 16 15 15 14 14 15 14 14 13 13 14 14 13 12 11 11 11 10 10 9 9 8 8 7 7 7 7 6 6 5 5 5 5 5 5 5 6 7 8 8 8 6 5 4 3 2 1 1 1 2 3 4 5 6 6 5 5 4 4 5 5 6 7 7 7 7 8 8 10 11 11 12 11 11 11 11 12 12 12 12 12 12 12 12 13 13 14 14 14 14 14 14 14 14 14 14 14 14 13 13 13
17 17 16 15 15 15 15 16 16 15 14 14 14 13 12 11 10 10 10 10 9 9 8 8 7 6 6 6 5 5 5 4 4 4 4 4 4 5 6 7 7 6 5 4 2 1 0 0 1 0 1 1 3 4 5 6 5 4 3 3 4 4 5 6 6 7 7 7 7 8 9 10 11 12 12 11 11 12 12 12 13 13 13 12 12 13 13 13 14 14 14 14 14 14 14 14 14 14 14 14 14 14 13
18 17 16 16 15 15 16 17 17 16 15 14 14 13 11 10 10 10 10 9 9 8 8 7 6 6 5 5 4 4 4 4 4 3 3 3 4 6 6 6 6 5 3 2 0 1 1 1 1 0 0 1 3 4 5 4 3 2 2 2 2 3 4 5 6 6 6 6 7 8 9 10 11 11 12 12 12 12 12 13 13 14 14 13 13 13 13 14 14 14 14 14 14 14 14 14 14 14 14 14 14 13 13
18 18 17 16 16 16 17 18 17 16 15 15 13 12 10 9 9 9 9 9 9 8 7 7 6 6 5 4 3 3 3 4 3 3 3 3 4 6 6 6 6 4 3 2 1 1 1 1 0 0 1 2 3 4 4 3 1 0 0 1 2 3 4 5 6 6 6 6 7 8 8 9 10 11 11 12 12 13 13 13 14 15 15 14 14 14 13 14 14 14 14 14 14 14 14 14 14 14 14 14 14 13 13
19 18 18 17 17 18 18 18 17 17 16 14 13 11 10 9 9 9 9 9 9 8 8 7 6 6 5 4 3 3 3 4 3 3 3 3 5 6 6 7 6 4 3 3 2 2 1 1 1 0 1 2 3 3 3 1 0 1 1 2 3 4 5 5 6 6 6 7 7 7 8 9 10 11 12 12 13 13 13 14 14 15 15 15 15 14 14 14 14 14 14 14 14 14 14 14 14 14 14 14 13 13 13
20 19 19 18 18 18 18 18 18 17 16 14 13 11 10 9 9 9 9 9 9 8 8 7 6 6 5 3 3 3 3 3 3 3 3 4 6 6 7 7 5 3 2 2 3 2 2 2 1 1 1 1 2 2 2 2 2 2 3 3 4 4 5 6 6 6 6 7 7 7 8 9 10 11 12 12 13 13 13 14 14 15 15 16 16 15 14 14 14 14 14 14 15 14 14 14 14 14 14 14 13 13 13
21 20 19 19 19 19 19 19 18 17 16 14 13 11 10 10 10 10 10 9 9 8 8 7 6 5 4 3 3 3 3 3 3 3 4 5 7 7 7 7 5 2 1 2 3 3 3 2 2 2 1 1 2 2 2 2 3 3 4 4 4 5 5 6 6 7 7 7 7 8 8 9 10 11 12 12 12 13 13 14 14 15 16 16 17 16 15 15 15 15 15 14 15 15 14 14 14 14 14 14 13 13 14
22 21 20 20 20 20 20 19 19 18 16 15 13 11 11 11 11 11 11 9 9 8 8 7 6 5 4 3 3 3 3 3 3 4 5 7 8 8 7 6 4 2 1 2 3 4 3 3 3 2 2 2 2 2 2 2 3 4 4 5 5 6 6 6 7 7 7 7 7 8 9 10 11 11 12 12 12 12 13 14 14 15 16 17 17 17 17 16 16 16 15 14 14 15 14 14 14 14 14 14 14 14 13
23 22 21 21 21 21 20 20 19 18 17 15 14 12 12 12 12 12 11 10 8 8 7 7 6 5 4 4 4 4 4 3 3 4 5 7 7 7 6 4 3 1 1 2 3 4 4 4 3 3 3 2 1 1 1 2 3 4 5 6 6 6 6 6 7 7 7 7 8 9 10 11 11 12 12 12 12 12 13 14 14 15 16 16 17 17 17 17 17 16 15 14 14 14 15 14 14 14 14 14 14 13 14
24 23 22 22 22 21 21 21 20 19 17 16 14 13 12 13 13 13 11 9 8 7 7 7 6 6 5 5 5 5 4 3 3 4 5 7 6 5 3 3 3 2 1 2 3 4 4 4 4 4 4 3 2 1 1 3 4 5 5 6 6 6 6 7 7 7 7 8 8 9 10 11 11 11 11 11 12 12 13 14 14 15 15 16 16 16 16 17 17 16 16 15 14 14 14 14 14 14 14 14 14 14 14
25 24 23 23 22 22 22 21 21 19 18 16 15 13 12 13 13 13 11 9 8 7 7 6 6 7 7 7 6 5 4 3 3 4 5 6 6 4 3 5 5 4 2 2 3 4 5 5 5 5 5 4 3 2 2 3 4 5 5 5 6 6 6 6 6 6 7 8 8 9 10 10 11 11 10 11 11 12 13 14 14 15 15 15 15 15 16 16 16 16 16 15 14 14 14 14 14 14 14 14 14 14 13
26 25 24 24 23 23 22 22 21 20 18 17 15 13 12 13 13 13 11 10 9 8 8 7 7 8 8 7 6 5 4 4 4 4 4 4 4 3 3 3 5 6 5 4 4 4 5 6 6 6 6 5 3 2 2 3 4 4 3 3 3 3 3 3 4 5 6 7 7 8 8 8 9 9 9 10 11 12 13 13 14 14 14 14 14 15 15 16 16 16 16 15 15 15 14 14 13 14 14 14 14 14 14
27 26 25 25 24 24 23 23 22 21 19 17 15 14 13 13 14 13 12 11 10 9 9 9 9 9 8 7 6 6 5 5 4 4 2 2 2 2 2 4 3 3 4 4 5 5 5 6 7 7 7 6 4 2 2 3 2 1 1 1 1 2 2 1 2 3 4 5 5 5 5 6 6 6 7 8 10 11 11 12 12 13 13 13 13 14 15 15 16 16 16 16 15 15 15 14 13 13 14 14 14 14 14
29 28 27 26 25 24 24 24 23 22 20 18 17 15 15 15 15 14 14 13 11 10 10 10 10 9 8 8 7 7 6 6 5 4 2 1 0 1 1 1 2 3 3 3 3 4 6 7 7 8 7 6 4 3 3 2 1 0 0 0 1 1 1 1 2 3 3 4 4 3 3 4 4 5 7 8 9 9 10 10 11 11 12 12 13 13 14 14 15 15 16 16 16 16 16 15 14 13 13 13 13 13 14
30 29 28 27 26 25 25 25 24 23 21 20 18 17 17 16 16 16 15 14 13 11 11 11 11 10 9 8 8 8 7 7 6 5 3 2 1 2 2 2 2 1 0 1 2 2 1 3 5 7 7 6 5 4 4 3 3 2 2 2 2 2 3 3 3 4 4 4 4 4 4 5 5 6 7 8 9 9 9 9 9 10 10 11 12 12 13 13 14 15 15 16 16 16 16 16 15 14 13 13 13 13 14
31 30 29 28 27 27 26 26 25 24 22 21 20 19 18 17 17 17 16 15 14 13 13 12 12 11 10 10 9 9 8 8 7 6 5 3 2 2 3 3 2 1 1 2 2 1 3 3 3 5 7 7 6 5 4 4 4 4 4 4 4 4 5 5 5 5 5 5 5 6 6 7 8 8 9 9 10 10 10 10 10 10 11 11 12 12 13 13 14 14 15 15 15 16 16 16 15 14 13 13 13 13 14
32 31 30 29 28 28 28 27 26 25 23 22 21 19 19 18 17 17 16 16 15 14 14 13 12 11 11 11 11 10 9 8 8 7 6 4 3 2 3 3 2 2 3 3 2 2 3 4 4 4 6 5 5 5 5 4 4 4 4 5 5 5 6 6 6 6 6 7 7 8 9 10 10 11 11 11 11 11 11 11 11 11 12 12 13 13 13 14 14 14 14 15 15 15 15 16 15 14 13 13 13 13 14
32 31 30 29 29 29 28 28 27 26 24 23 22 20 19 18 17 16 16 15 15 15 15 14 13 11 11 11 11 11 11 10 9 8 7 6 5 4 4 3 3 2 1 1 1 3 3 2 3 4 3 4 5 6 5 4 4 3 4 4 5 6 7 7 7 8 8 9 9 10 11 12 13 14 14 14 14 13 13 13 13 13 13 14 14 14 14 14 14 14 14 14 14 14 15 15 14 13 12 13 13 13 14
32 31 31 30 30 29 29 29 28 27 26 24 23 21 19 18 16 16 16 16 16 16 15 14 13 11 10 10 10 11 11 11 10 9 8 8 7 6 5 4 4 4 3 3 3 3 3 1 1 1 2 3 5 6 6 5 4 4 4 5 6 6 7 7 7 8 9 10 11 12 13 13 14 15 15 15 15 15 15 15 15 15 15 15 15 15 14 14 13 14 14 14 14 14 14 14 13 12 12 13 13 14 15
32 32 31 31 30 30 30 30 29 28 27 25 24 22 20 18 18 18 18 18 18 17 15 13 12 11 10 10 10 11 12 12 12 10 9 9 9 8 7 6 5 4 4 3 2 3 5 3 2 1 2 3 4 6 7 5 5 5 5 6 7 7 7 7 8 9 10 11 12 12 13 13 13 14 14 14 15 15 15 15 15 15 15 15 15 14 13 12 12 13 13 13 13 13 13 13 12 12 12 13 13 14 15
32 32 31 31 31 31 31 31 30 29 28 26 25 23 21 20 19 19 19 18 18 17 15 14 12 12 11 11 11 12 13 14 14 13 11 10 10 10 9 8 7 7 6 5 4 3 3 3 2 2 1 1 2 3 5 6 5 5 6 7 7 7 7 8 9 10 11 12 12 12 13 12 12 12 13 13 13 14 14 14 14 14 14 14 13 12 11 11 11 12 12 12 12 12 13 12 12 11 12 12 13 14 15
33 32 32 32 32 32 32 31 30 29 28 27 26 24 23 22 21 20 19 19 18 17 15 14 12 12 12 12 13 13 14 15 14 14 14 9 9 10 11 10 9 8 7 6 6 6 5 4 4 3 3 2 1 2 2 4 5 5 6 6 6 7 8 9 11 12 12 12 12 13 13 13 13 12 12 12 13 13 13 13 12 12 12 12 11 11 11 11 11 11 11 11 11 11 11 11 11 11 11 12 13 14 16
33 33 33 33 33 33 33 32 31 30 29 28 27 26 24 23 22 21 20 20 19 17 16 14 13 13 13 13 14 13 13 14 15 15 15 12 9 9 12 12 11 10 9 8 7 7 6 6 6 5 4 3 2 1 2 3 4 4 5 5 6 7 9 11 11 11 11 11 12 13 13 14 13 13 13 13 13 12 12 11 11 10 11 11 11 11 11 11 11 10 10 9 9 9 10 10 10 10 11 12 13 15 16
Wind_Direction
127 125 123 121 119 117 115 113 111 109 107 104 103 101 98 95 93 91 89 87 85 82 80 76 74 72 71 70 67 65 62 60 56 54 60 65 71 79 87 93 96 97 95 92 90 88 83 78 69 59 49 39 30 25 28 38 48 51 49 42 36 36 41 31 24 20 22 22 22 22 22 21 21 21 21 21 20 18 17 17 17 17 17 17 16 15 14 14 15 15 16 16 16 16 19 20 20 20 19 18 17 15 15
128 126 124 123 121 118 116 114 112 109 108 106 104 102 100 98 95 93 91 88 85 82 80 77 74 72 69 67 66 64 61 56 51 50 54 61 69 78 87 93 96 97 95 94 94 94 91 85 77 66 53 43 32 23 18 22 29 35 36 32 27 25 30 23 17 14 14 15 16 17 17 16 15 15 15 16 15 13 11 11 11 12 12 12 10 9 9 8 8 9 10 10 9 9 10 13 14 16 16 16 14 12 11
129 128 126 124 122 120 118 116 114 111 109 107 104 102 101 99 97 95 92 89 87 84 81 78 75 72 70 66 63 61 58 53 49 49 53 59 66 73 80 87 92 94 92 92 94 96 96 91 81 68 54 44 35 25 15 12 13 16 18 17 15 16 21 15 11 9 8 9 11 12 12 12 12 11 11 12 11 9 7 6 5 5 5 5 5 5 3 2 2 3 4 4 4 4 4 5 5 5 7 9 10 9 8
132 130 128 127 125 123 121 119 117 115 112 110 107 105 102 100 99 97 95 93 90 86 82 79 76 74 72 68 64 60 57 53 51 52 55 59 63 66 70 75 82 88 90 90 92 97 99 96 86 70 52 41 32 24 15 6 2 2 3 4 5 9 14 12 9 6 3 3 6 9 9 10 9 8 7 7 7 6 4 2 1 360 359 359 359 360 360 359 358 358 358 357 356 357 358 359 359 358 357 358 359 360 2
134 133 131 130 128 126 124 122 120 118 116 114 111 108 105 103 101 99 97 97 94 89 85 81 79 78 76 72 67 62 59 56 56 56 57 59 61 63 64 64 65 73 90 94 98 101 103 100 89 73 54 39 27 17 8 360 354 353 355 359 2 7 14 13 10 6 360 360 2 6 6 7 6 5 4 3 2 2 1 359 358 358 357 355 355 355 356 356 356 354 354 353 352 352 352 352 353 354 354 353 350 350 350
138 137 135 134 133 131 130 128 126 123 120 118 115 112 108 104 102 101 101 101 97 92 88 84 81 78 75 72 68 65 64 62 61 60 59 58 58 59 60 60 61 65 81 100 106 107 105 100 89 73 54 37 21 8 359 351 347 348 353 0 7 13 19 14 9 5 1 359 1 4 4 4 4 4 1 358 357 355 354 354 355 355 354 354 353 352 352 351 351 351 351 350 348 348 348 347 347 347 349 348 347 345 343
143 142 142 141 140 138 136 134 131 127 125 122 119 115 110 107 108 108 108 103 99 94 89 81 74 68 64 66 69 70 68 66 63 61 59 57 56 56 57 59 62 67 79 95 104 106 104 98 87 71 53 34 15 1 352 346 345 349 359 9 17 24 25 16 10 6 3 2 3 3 2 2 360 358 358 355 353 352 350 349 350 351 351 351 350 349 348 347 346 346 346 345 345 345 345 344 343 343 343 344 343 343 342
148 149 148 147 145 143 140 138 135 131 128 125 120 116 113 112 116 118 115 109 103 95 88 77 66 57 53 60 69 73 72 67 64 61 58 56 55 54 56 59 64 72 81 91 97 100 99 93 82 67 49 29 11 358 351 347 349 358 10 17 24 29 25 15 8 6 5 4 4 3 2 1 359 357 356 354 352 351 350 348 347 346 346 347 346 345 345 344 343 344 343 342 342 343 342 341 340 340 340 339 339 339 340
154 154 153 152 150 147 145 142 140 136 133 129 124 120 117 119 123 128 124 117 110 100 90 80 65 50 45 54 65 73 72 67 63 60 58 55 54 54 55 60 67 75 83 89 92 93 90 83 72 58 40 22 7 357 352 350 354 4 14 17 23 25 21 13 7 6 5 5 4 2 1 360 358 357 355 355 353 351 350 349 348 346 344 344 343 341 342 341 340 340 340 339 339 340 339 338 337 337 336 336 335 335 336
159 159 158 157 155 152 150 147 144 141 137 134 132 130 128 131 137 142 136 127 118 112 101 90 63 37 32 42 58 69 71 66 61 58 56 54 54 54 55 60 68 77 84 86 86 82 76 67 56 44 29 14 3 357 354 354 356 1 6 9 15 18 14 9 7 5 4 3 1 360 358 358 356 355 354 353 352 352 350 349 348 347 345 344 343 341 340 339 339 339 338 338 337 337 336 335 335 334 333 333 332 332 332
162 161 160 159 158 155 153 151 148 144 141 140 142 143 144 148 152 154 144 130 124 124 121 103 53 13 14 27 47 63 68 62 57 54 53 52 52 53 55 60 68 76 82 82 77 70 61 50 39 29 18 8 1 358 356 353 351 351 355 360 6 10 8 6 5 3 2 359 358 357 356 355 354 353 353 352 351 350 349 349 347 347 344 344 344 342 340 339 338 338 337 336 336 335 335 333 333 332 331 331 330 330 329
163 161 160 160 159 158 155 153 151 149 148 150 153 155 154 153 149 141 128 118 111 107 105 40 357 355 6 21 43 59 64 57 51 47 47 48 49 52 55 59 65 71 76 74 68 59 49 38 28 18 7 1 359 357 355 349 344 343 346 353 359 4 4 3 3 1 358 356 354 354 353 352 351 351 351 350 349 348 348 347 347 346 344 344 343 342 341 339 337 337 337 336 335 334 334 333 332 331 330 330 329 328 327
164 162 162 162 161 160 159 157 156 155 155 157 157 154 146 138 126 112 100 90 72 54 41 9 360 3 12 26 44 56 57 49 42 39 38 40 44 48 53 56 60 64 66 65 59 51 40 30 20 10 1 355 353 353 351 344 338 337 340 348 354 358 360 360 1 360 357 354 352 351 352 351 351 350 350 349 347 347 347 346 345 345 344 343 343 341 340 338 337 338 338 337 335 334 333 332 332 331 329 328 327 326 324
166 165 166 165 164 163 162 161 160 158 157 155 148 139 130 121 110 99 86 77 63 53 43 28 16 17 25 36 48 55 51 41 34 31 30 31 34 41 49 52 53 53 54 53 49 40 30 21 13 5 354 348 347 347 345 339 334 333 338 344 349 352 354 357 358 359 357 354 351 350 350 350 350 350 349 348 347 347 346 345 346 346 345 343 342 340 339 339 340 339 338 338 337 335 334 333 332 331 329 327 325 324 322
170 170 171 169 167 165 164 162 160 157 153 146 137 128 121 116 110 102 87 71 63 57 50 44 34 34 40 50 57 58 51 38 30 26 25 24 26 33 43 45 43 40 39 38 34 26 16 8 1 353 343 341 343 344 341 335 330 330 337 342 346 348 349 353 356 357 357 354 352 350 349 350 350 349 348 348 347 347 347 346 345 344 344 343 341 340 340 340 340 340 340 339 338 337 335 334 333 331 331 328 327 325 324
175 176 175 173 169 165 163 160 157 152 148 141 133 126 121 119 121 120 105 73 60 54 48 46 44 45 50 56 58 55 46 36 27 22 19 20 22 25 29 32 28 25 24 23 19 11 3 353 345 337 333 335 339 342 340 334 328 328 335 342 343 343 344 351 354 355 356 354 353 352 350 351 350 350 349 349 349 348 348 347 346 344 344 345 344 342 342 341 341 340 340 341 340 338 335 335 335 333 332 331 330 329 330
180 180 179 175 169 164 161 158 154 150 145 140 134 129 126 128 136 147 161 116 39 28 24 29 35 41 46 48 46 40 30 27 23 18 14 14 15 14 12 8 6 7 11 12 8 1 352 342 333 328 327 331 337 341 341 336 329 328 335 342 342 339 340 348 351 353 356 355 354 352 351 350 350 350 350 350 350 350 349 349 348 347 347 347 347 345 345 343 342 341 340 342 341 339 335 336 335 333 332 331 330 329 330
183 183 181 176 169 164 160 156 152 147 144 143 142 140 140 144 154 171 195 223 270 296 304 322 346 10 22 27 24 18 17 19 18 13 9 4 2 359 353 349 348 353 359 1 359 352 345 335 327 323 323 328 335 341 343 338 333 330 336 341 339 334 337 344 348 352 354 355 354 352 351 350 350 350 351 351 350 350 351 351 351 350 351 351 350 349 349 348 346 345 344 344 343 340 338 337 336 334 332 332 330 328 328
185 185 183 178 171 166 161 158 153 148 146 147 152 160 165 174 183 198 220 245 274 282 283 288 298 318 340 352 355 358 6 7 5 359 354 348 344 343 343 341 342 344 348 352 351 347 340 331 323 319 320 325 332 338 341 341 338 336 338 339 333 327 334 341 345 350 354 355 354 352 352 351 350 351 352 352 352 352 353 353 353 354 355 355 355 354 354 354 352 352 352 349 346 344 342 341 340 338 336 336 334 331 329
188 187 185 181 175 170 166 163 160 157 156 157 165 177 189 198 205 220 248 272 287 291 289 284 281 287 300 319 330 341 349 348 344 339 332 327 327 333 337 339 340 342 344 346 345 342 336 329 321 317 319 323 329 334 339 341 341 340 339 336 328 323 330 337 343 348 353 355 354 352 352 351 351 352 353 353 354 355 356 356 356 358 359 360 360 360 360 360 359 359 358 356 353 350 347 347 345 344 342 341 339 336 335
192 190 188 184 180 177 174 173 174 175 175 175 184 199 207 210 217 235 266 283 292 292 289 279 274 276 283 294 311 323 330 331 330 325 316 309 316 330 339 343 343 341 340 338 338 335 331 327 323 319 319 323 327 332 336 339 340 338 335 333 327 323 327 335 341 348 352 354 353 352 352 352 352 353 355 356 358 360 1 360 1 3 3 4 4 4 3 4 3 2 1 359 357 355 353 350 349 347 346 344 342 340 339
197 194 191 187 184 183 182 184 188 191 190 191 200 215 219 218 225 249 278 281 283 283 280 271 269 270 274 279 292 307 316 320 324 323 310 294 305 334 345 345 338 331 326 325 325 326 325 326 325 323 322 324 328 331 334 336 334 332 331 330 328 326 327 333 340 347 351 352 351 351 352 352 352 355 358 359 2 4 5 4 4 6 7 8 8 7 6 6 4 3 1 360 358 357 355 353 351 349 348 346 345 343 342
202 200 195 191 188 188 189 192 196 201 200 201 210 222 226 230 246 275 289 283 276 270 269 267 269 272 275 278 289 299 307 316 326 334 325 248 265 310 321 317 312 311 310 312 313 315 319 323 324 325 325 326 328 329 330 329 326 326 327 329 330 329 329 332 337 344 348 350 350 350 352 353 355 359 3 3 5 6 7 7 7 9 10 9 9 8 6 5 4 2 1 360 359 358 355 354 352 351 349 348 347 345 345
207 205 202 197 194 193 194 198 204 208 208 209 215 223 227 234 261 292 300 283 259 249 257 267 278 289 291 293 296 299 300 307 319 322 283 261 274 284 291 293 295 298 300 303 305 308 314 319 322 323 324 324 323 322 322 320 319 320 324 328 331 331 330 329 331 337 344 348 348 349 351 355 360 4 5 7 8 9 9 10 9 10 10 9 7 6 6 5 4 2 1 360 358 356 355 354 352 351 350 348 347 346 345
209 209 208 205 202 200 200 204 210 214 215 215 218 222 225 236 257 278 301 267 227 221 245 284 310 313 305 302 299 291 268 253 261 273 278 281 283 286 288 291 293 296 297 298 300 305 312 316 317 317 317 316 315 314 316 315 316 318 323 327 330 330 328 327 327 332 339 345 347 347 351 358 5 8 8 9 11 11 11 10 9 8 7 6 4 4 4 4 2 360 359 358 357 355 354 352 351 349 348 347 346 344 343
211 213 213 211 209 207 207 211 215 218 219 219 219 221 226 236 248 255 276 211 197 201 255 324 323 315 305 295 270 230 217 234 260 276 285 288 290 291 291 294 296 297 297 296 298 306 313 315 314 312 310 310 310 312 313 316 319 322 325 326 327 327 326 325 326 330 336 341 344 346 353 4 12 13 13 13 12 10 8 6 5 4 3 2 1 360 1 1 359 357 357 356 355 353 352 350 348 346 346 345 344 342 341
212 214 215 215 214 213 214 217 219 219 219 217 218 222 229 234 232 220 197 190 198 221 309 324 316 306 291 249 212 214 231 252 271 283 290 294 296 296 297 298 300 301 299 297 300 307 313 315 314 312 311 311 311 313 315 320 325 328 328 326 326 326 325 324 327 330 335 339 342 345 356 11 20 18 16 14 12 8 4 1 359 358 358 358 358 358 359 358 356 354 354 353 352 351 349 347 346 344 343 342 341 340 339
212 214 215 216 217 217 220 221 220 218 216 213 215 222 232 230 214 193 192 202 223 252 283 301 302 293 256 223 222 233 251 267 279 287 292 297 299 300 300 303 307 313 318 314 310 310 310 313 316 317 317 316 316 317 320 325 330 331 327 323 323 324 325 326 329 332 336 339 341 346 3 21 24 20 17 13 8 4 360 358 355 355 355 356 355 355 357 356 354 353 352 351 350 349 347 345 344 342 341 340 338 338 337
212 214 214 217 219 221 222 221 220 218 213 210 215 224 232 223 206 195 202 216 236 250 252 269 280 276 249 239 245 256 267 276 284 289 294 299 302 303 305 311 322 333 334 325 317 314 313 314 317 319 320 320 320 320 321 324 327 327 322 320 321 324 327 329 332 334 337 340 342 349 17 32 29 20 15 9 5 1 358 356 354 354 354 355 356 356 356 355 353 352 350 349 348 347 345 344 343 341 339 338 336 336 334
211 212 213 216 222 226 225 222 219 215 209 208 215 226 231 217 203 201 213 227 241 248 244 253 264 267 260 261 266 272 277 282 287 293 298 302 306 308 312 318 323 326 325 323 320 319 318 318 318 318 319 320 319 318 317 316 318 321 320 320 323 328 331 333 334 337 339 342 346 356 34 41 30 18 11 6 2 1 359 357 357 355 355 355 356 356 355 353 352 350 349 348 347 345 344 343 341 339 338 336 335 334 333
209 211 213 216 222 227 226 221 216 210 204 207 217 228 228 212 202 206 220 233 242 242 237 243 251 256 263 269 273 277 280 284 290 296 302 306 308 310 311 312 312 313 315 318 319 320 320 319 319 317 317 317 316 315 312 310 312 318 321 324 328 333 334 334 335 338 341 346 352 5 38 41 27 16 9 5 3 2 1 1 360 359 357 356 356 356 354 352 351 349 348 347 345 344 343 342 340 338 337 335 334 333 332
206 210 213 216 221 224 223 216 209 203 202 209 219 226 219 206 203 209 221 230 234 233 232 237 243 250 259 266 272 276 280 285 292 298 302 305 307 306 304 301 301 304 308 312 316 319 320 319 318 316 316 318 318 317 313 309 314 322 325 328 333 335 335 334 335 339 344 351 359 13 32 35 23 12 6 3 2 2 3 2 2 1 359 358 357 355 353 351 350 349 348 346 345 344 342 341 339 337 336 335 333 332 331
205 211 215 217 220 220 217 209 204 201 205 214 221 219 210 203 203 210 218 224 225 226 230 235 242 249 258 265 271 276 281 287 292 296 299 301 305 306 303 299 300 303 306 310 312 314 317 317 315 315 316 321 324 325 322 319 324 327 327 330 333 335 334 333 335 339 346 354 3 13 22 24 16 8 4 3 3 3 4 3 3 2 360 359 357 355 353 352 351 349 348 346 345 344 342 341 339 337 336 335 333 332 331
205 210 215 217 218 217 214 209 205 206 211 217 218 212 207 203 206 212 219 223 224 225 228 235 242 249 257 264 271 277 282 287 290 292 293 297 306 312 313 313 311 308 308 307 307 306 307 309 309 312 317 327 334 342 345 335 330 329 329 330 332 333 332 333 335 339 346 354 3 11 15 14 10 7 4 4 5 6 5 4 3 2 360 359 357 356 354 353 351 350 348 346 345 343 342 340 339 337 336 334 334 333 332
207 210 214 215 216 216 217 214 213 214 217 216 211 207 205 206 210 216 221 225 225 225 228 235 241 249 256 263 271 277 282 284 285 285 284 293 306 315 318 318 314 310 306 303 299 297 297 299 301 307 316 330 344 354 350 332 325 326 327 328 329 329 329 331 334 338 344 352 1 8 12 12 10 8 8 9 10 10 8 6 4 2 360 358 357 356 355 353 352 350 348 346 344 343 342 340 339 338 336 335 334 334 334
209 210 213 214 215 218 221 219 218 218 217 213 208 205 206 209 214 220 223 225 224 225 229 235 241 247 255 264 272 278 280 280 278 275 275 287 299 307 310 309 308 306 303 298 295 292 291 292 294 300 312 330 345 348 339 323 316 316 319 320 322 324 326 328 331 336 342 350 358 6 10 11 10 10 11 14 15 14 13 10 6 3 1 359 357 355 354 353 351 349 347 346 344 343 342 341 340 339 337 337 337 336 336
210 211 214 216 218 220 222 220 218 216 214 209 206 206 208 213 218 223 225 227 227 228 232 235 241 247 255 265 275 280 279 274 268 264 269 279 289 296 301 303 304 303 302 298 295 291 290 288 288 292 305 326 337 336 327 319 310 305 304 307 312 316 320 324 328 333 340 347 356 4 7 9 9 10 11 14 14 14 14 10 7 4 2 359 357 355 353 352 351 349 347 346 345 344 343 343 342 340 339 339 339 338 337
210 212 214 216 219 221 221 217 214 211 209 206 205 208 211 218 224 228 230 230 230 231 234 236 240 246 255 266 276 279 276 268 263 263 269 275 283 293 301 306 309 308 306 302 298 295 292 287 280 278 295 320 326 324 321 315 309 301 292 292 298 306 312 318 324 330 337 345 353 360 3 5 5 6 8 9 9 10 11 9 7 5 2 360 357 355 353 352 350 349 347 347 346 345 345 344 343 342 341 341 340 339 338
209 211 213 215 217 218 217 211 208 206 205 204 206 210 216 223 230 234 234 232 232 234 235 237 239 244 254 266 273 273 268 261 259 263 270 279 291 304 313 318 318 317 314 310 307 302 296 279 256 249 288 309 317 319 319 314 308 298 284 277 281 293 304 312 320 328 335 343 349 355 358 359 360 1 3 3 3 4 6 6 5 3 2 360 357 354 353 351 350 349 348 347 347 346 345 344 344 343 342 341 341 340 339
208 211 212 213 214 214 209 205 203 203 203 204 208 213 220 228 234 236 235 231 230 230 232 234 238 243 252 262 266 263 255 250 251 259 272 291 311 324 331 332 331 327 321 318 319 327 355 154 165 197 292 311 321 324 321 315 308 294 274 264 271 287 301 311 319 326 334 340 347 350 352 353 355 356 357 356 355 357 359 1 1 0 360 359 356 354 352 350 350 349 348 348 347 346 345 345 344 343 342 342 341 341 339
207 210 211 212 211 207 203 201 201 201 202 206 210 216 224 232 237 237 233 227 223 223 226 231 237 243 248 254 255 249 239 236 241 254 277 308 329 340 346 345 342 333 317 305 294 120 119 118 108 88 337 332 334 332 325 317 306 280 250 255 279 301 312 318 323 329 334 339 343 346 347 348 349 349 350 349 348 349 351 353 354 354 356 356 355 353 351 350 350 349 348 348 347 346 345 345 344 343 342 342 342 341 340
207 208 209 208 206 202 199 199 200 202 203 208 213 219 227 234 238 236 229 222 219 220 226 232 238 241 242 243 240 230 221 223 234 256 286 319 341 350 355 353 347 331 301 272 235 180 143 127 108 43 355 349 345 339 332 321 302 189 191 318 328 329 328 328 330 332 334 335 337 339 340 342 343 343 343 343 343 343 344 345 346 347 349 351 352 351 350 350 350 349 349 348 347 346 345 345 344 343 343 343 342 342 341
206 206 205 204 201 198 197 199 201 203 206 210 215 221 228 234 235 230 222 219 220 225 230 234 236 236 233 230 225 217 215 220 232 260 301 330 348 355 358 355 348 329 288 258 238 216 191 175 167 123 12 360 353 347 342 339 13 37 10 353 346 339 334 332 332 331 329 329 330 332 333 335 336 337 337 337 337 337 338 338 340 341 343 345 348 349 349 349 349 349 349 348 348 347 346 345 344 344 344 343 343 343 343
204 204 203 201 199 197 198 200 202 204 208 212 216 222 228 231 226 218 213 215 221 227 230 229 227 225 223 223 223 222 223 229 244 275 316 337 347 352 355 354 349 333 279 243 227 215 199 188 174 149 72 29 8 358 353 358 358 353 349 344 337 331 328 326 325 324 322 321 322 325 327 328 329 330 331 331 332 332 332 333 334 335 337 339 343 345 346 347 346 347 348 348 347 347 346 346 345 345 344 344 344 343 343
203 202 202 201 200 198 199 202 204 207 211 213 217 222 227 225 216 207 204 209 217 222 222 218 214 211 212 218 224 229 233 247 267 296 322 337 343 347 349 352 351 343 268 222 211 202 193 181 164 141 105 60 26 9 360 354 344 335 328 323 317 314 314 314 314 314 313 315 317 320 322 322 322 323 324 325 326 326 327 328 329 331 332 334 338 341 343 343 343 345 346 346 346 346 347 346 346 345 345 344 344 343 343
202 201 201 202 201 201 202 205 208 211 213 214 217 221 224 218 207 200 198 203 208 211 210 206 203 201 204 211 219 225 233 252 281 308 324 333 337 341 344 350 358 358 260 207 197 191 183 171 155 135 112 83 48 18 359 341 324 313 308 304 303 303 303 306 307 308 309 312 315 317 318 317 317 318 319 320 321 322 323 324 326 327 328 331 334 338 340 340 341 343 346 346 346 346 346 346 346 345 344 344 343 343 342
203 202 202 202 202 203 205 208 211 214 214 214 216 219 221 213 203 196 195 198 201 202 201 200 199 200 202 207 214 220 228 248 279 307 321 329 333 336 344 9 26 16 252 204 193 187 182 174 159 144 128 114 90 24 331 312 301 296 292 293 294 297 299 302 304 306 307 310 312 314 315 314 314 315 316 317 318 319 320 322 323 324 325 328 331 334 336 338 339 342 345 346 345 345 345 346 345 345 344 344 343 342 341
204 203 203 203 203 203 206 210 214 215 215 215 216 219 220 211 201 195 195 198 200 200 199 198 201 204 206 207 210 214 223 242 274 303 315 322 330 343 15 57 67 61 235 198 187 187 187 181 170 157 147 147 159 220 282 292 291 288 283 283 284 286 291 295 299 302 304 307 309 311 312 312 313 314 315 315 316 318 319 320 321 322 324 326 329 331 333 335 337 341 344 345 345 344 344 344 344 344 344 343 343 342 341
205 204 204 203 203 204 207 211 214 216 216 216 218 221 222 212 202 197 198 201 205 206 204 202 205 208 207 203 203 210 219 239 266 294 311 323 333 355 68 90 81 67 67 126 157 172 181 181 175 167 161 168 183 221 267 287 292 290 283 276 271 271 276 284 289 294 299 303 306 308 310 312 314 315 316 317 317 318 318 319 320 321 323 325 327 329 330 332 335 339 342 343 343 342 343 343 343 343 343 342 342 341 340
204 204 203 202 203 204 207 211 215 216 216 217 218 220 220 211 203 199 201 204 208 209 207 206 207 208 207 199 199 209 220 237 257 279 300 328 341 351 20 59 73 71 60 92 128 149 163 171 172 170 170 178 190 224 274 295 301 298 286 267 251 244 249 264 277 287 294 299 303 307 310 314 316 318 319 319 318 318 318 319 320 321 323 324 326 327 328 330 333 336 339 341 340 340 340 341 341 341 341 340 340 339 339
205 204 203 203 203 206 209 213 215 216 216 216 216 217 215 208 203 202 204 206 208 209 208 209 208 207 206 201 201 209 221 234 248 263 281 329 5 9 350 345 357 47 74 90 115 137 154 165 169 172 175 182 197 236 282 300 309 312 286 209 199 199 208 240 267 281 292 296 300 305 311 316 319 319 320 319 319 319 320 321 322 323 324 325 325 326 327 329 331 334 336 337 337 337 337 338 339 339 338 337 337 337 336
206 206 205 204 206 208 212 215 217 217 215 213 212 212 211 207 204 204 207 209 210 210 210 211 209 205 203 202 203 208 217 229 239 250 261 255 12 21 26 353 9 14 2 40 82 129 152 163 173 179 182 192 217 254 272 274 266 236 149 160 190 215 246 274 286 294 301 302 302 304 309 312 314 315 316 317 318 319 321 323 324 325 325 326 326 326 327 328 330 332 333 333 333 333 334 334 336 336 334 333 333 333 334
208 208 207 208 209 211 214 215 217 217 215 212 210 210 209 207 205 205 208 210 212 212 212 213 210 205 201 201 204 208 215 225 232 239 246 245 186 142 106 73 65 63 359 37 356 333 180 173 181 188 199 219 242 257 255 241 236 247 267 281 287 288 290 291 294 299 305 308 309 309 310 311 312 313 315 316 317 319 320 322 323 325 326 326 327 327 327 328 328 329 329 329 330 330 329 330 332 333 330 328 329 330 332
210 210 210 211 212 213 214 215 216 217 216 214 212 211 209 207 206 206 207 209 210 210 211 212 211 208 203 203 205 208 211 220 228 233 234 234 203 149 108 91 103 126 90 102 107 290 291 294 271 244 233 242 247 243 237 235 246 262 275 285 290 292 292 291 291 293 298 303 308 310 311 312 313 313 314 314 315 317 318 319 321 322 323 325 325 325 326 326 326 326 326 326 326 325 325 325 327 328 325 324 325 327 329
211 212 213 214 215 215 215 215 216 216 215 214 214 214 213 211 209 208 208 208 208 209 209 209 208 207 206 204 204 206 208 214 223 227 225 220 216 191 150 130 104 59 44 55 107 192 243 277 295 285 262 246 223 210 219 234 253 268 278 286 291 294 294 292 292 292 294 297 300 304 306 308 308 309 309 310 311 311 312 314 315 317 319 320 321 322 323 323 324 323 323 322 322 321 320 321 322 322 320 320 322 324 326
212 213 215 216 216 216 216 215 215 215 214 214 214 216 217 216 215 212 210 209 209 209 209 208 206 205 207 208 206 205 207 210 216 221 219 216 211 207 202 167 136 104 49 7 237 226 232 287 321 309 271 215 200 203 218 239 256 268 276 285 292 295 295 294 293 293 293 294 296 299 301 303 304 305 305 304 304 305 305 306 308 310 312 314 315 317 318 319 320 320 320 319 318 317 316 317 317 317 316 317 319 322 325
214 215 216 217 217 217 216 215 215 215 214 214 214 216 219 220 218 214 211 210 210 210 210 209 207 204 206 211 212 210 209 208 209 212 215 214 213 212 214 223 202 180 182 188 207 211 192 154 73 10 292 232 217 220 231 245 257 267 276 288 294 297 297 296 295 295 295 296 298 299 301 303 304 303 302 301 301 301 300 301 303 305 307 309 311 312 313 315 316 317 317 316 315 313 312 313 313 312 313 315 317 320 323
215 216 216 217 217 216 216 215 215 215 215 215 215 216 218 218 216 213 211 210 210 210 209 209 208 206 206 209 214 216 215 210 206 205 208 212 216 217 218 221 225 233 240 216 184 165 152 130 130 168 299 298 247 224 227 238 252 267 281 292 297 299 300 299 300 302 302 303 305 306 307 308 307 306 305 304 302 301 301 302 304 305 307 308 309 309 310 311 313 314 313 313 311 309 308 308 309 309 311 313 316 319 322
216 217 217 216 216 216 216 217 217 216 216 216 215 215 215 215 214 213 212 212 211 210 209 208 208 208 208 209 212 215 218 216 210 202 199 206 214 217 218 219 220 224 228 226 219 199 172 157 158 157 120 341 300 251 224 227 238 258 279 291 295 296 298 301 305 308 309 311 314 316 317 317 317 315 313 311 309 308 307 308 309 311 312 311 310 309 307 307 308 309 310 309 307 305 303 304 305 307 310 313 316 319 322
216 216 215 215 215 215 216 217 218 218 218 217 216 214 214 214 214 214 214 213 213 212 211 211 210 211 212 213 214 216 218 218 214 207 200 198 207 214 215 216 218 221 224 225 223 221 220 207 189 165 138 153 244 296 278 238 238 254 270 279 284 288 295 301 306 310 312 315 319 322 323 324 324 323 321 319 317 316 315 316 318 318 318 315 311 308 306 305 305 305 305 304 302 299 298 301 305 309 311 315 317 319 321
215 215 214 213 214 214 215 217 218 219 219 218 217 216 216 215 215 214 213 213 212 212 213 214 215 215 216 217 218 220 220 218 215 212 209 203 201 206 208 210 213 215 217 219 220 221 222 228 224 210 188 159 148 191 286 283 276 268 261 261 269 282 295 303 306 308 311 315 320 323 324 325 326 327 326 324 322 321 322 324 326 325 321 316 311 307 305 303 302 303 302 300 297 295 296 300 306 311 314 317 319 320 321